CW5988 Weather Reports


time (UTC)temp
C
wind
direction
speed
KPH
gust
KPH
rain 1hr
cm
rain 24hr
cm
rain mn
cm
humidity
%
barometer
mb
20260502170450 12 280 11.3 22.5 0.00 0.00 0.00 81 1013.9
20260502163938 12 272 6.4 14.5 0.00 0.00 0.00 83 1013.9
20260502163453 12 227 4.8 17.7 0.00 0.00 0.00 83 1014.0
20260502162917 12 218 4.8 17.7 0.00 0.00 0.00 83 1013.9
20260502162418 12 222 4.8 14.5 0.00 0.00 0.00 84 1013.9
20260502161924 12 258 4.8 17.7 0.00 0.00 0.00 84 1014.0
20260502161433 12 268 9.7 17.7 0.00 0.00 0.00 84 1014.0
20260502160949 12 249 3.2 14.5 0.00 0.00 0.00 84 1013.9
20260502160435 12 199 6.4 14.5 0.00 0.00 0.00 85 1013.9
20260502151919 12 283 6.4 11.3 0.00 0.00 0.00 85 1013.7
20260502151424 12 228 3.2 14.5 0.00 0.00 0.00 85 1013.6
20260502150932 12 244 6.4 16.1 0.00 0.00 0.00 85 1013.6
20260502150420 12 239 4.8 20.9 0.00 0.00 0.00 85 1013.5
20260502130429 12 252 4.8 16.1 0.00 0.00 0.00 85 1012.6
20260502123445 12 268 4.8 14.5 0.00 0.00 0.00 85 1012.6
20260502122930 12 198 6.4 14.5 0.00 0.00 0.00 85 1012.7
20260502122416 12 256 3.2 12.9 0.00 0.00 0.00 85 1012.6
20260502121923 12 221 6.4 12.9 0.00 0.00 0.00 85 1012.6
20260502121427 12 258 4.8 12.9 0.00 0.00 0.00 85 1012.6
20260502120935 12 158 4.8 19.3 0.00 0.00 0.00 85 1012.6
20260502120420 12 209 9.7 19.3 0.00 0.00 0.00 85 1012.6
20260502115924 12 258 8.0 16.1 0.00 0.00 0.00 85 1012.5
20260502115433 12 219 6.4 25.7 0.00 0.00 0.00 85 1012.7
20260502114919 12 201 12.9 25.7 0.00 0.00 0.00 85 1012.5
20260502114427 12 262 9.7 22.5 0.00 0.00 0.00 85 1012.6
20260502113956 12 285 6.4 22.5 0.00 0.00 0.00 85 1012.7
20260502113422 12 249 6.4 20.9 0.00 0.00 0.00 85 1012.6
20260502112929 12 222 9.7 19.3 0.00 0.00 0.00 85 1012.6
20260502112436 12 205 8.0 14.5 0.00 0.00 0.00 85 1012.6
20260502111951 12 268 6.4 19.3 0.00 0.00 0.00 85 1012.6
20260502111436 12 222 6.4 19.3 0.00 0.00 0.00 85 1012.7
20260502110924 12 273 4.8 14.5 0.00 0.00 0.00 85 1012.7
20260502110428 12 268 4.8 14.5 0.00 0.00 0.00 85 1012.7
20260502105935 12 247 3.2 9.7 0.00 0.00 0.00 85 1012.6
20260502105422 12 177 4.8 11.3 0.00 0.00 0.00 85 1012.7
20260502104930 12 313 1.6 11.3 0.00 0.00 0.00 85 1012.7
20260502104436 12 203 3.2 9.7 0.00 0.00 0.00 85 1012.7
20260502103953 12 268 3.2 14.5 0.00 0.00 0.00 85 1012.8
20260502103418 12 210 9.7 14.5 0.00 0.00 0.00 85 1012.7
20260502102939 12 240 6.4 17.7 0.00 0.00 0.00 85 1012.7
20260502102427 12 212 4.8 17.7 0.00 0.00 0.00 85 1012.7
20260502101932 12 230 6.4 16.1 0.00 0.00 0.00 85 1012.8
20260502101418 12 233 3.2 11.3 0.00 0.00 0.00 85 1012.8
20260502100925 12 318 4.8 16.1 0.00 0.00 0.00 85 1012.9
20260502100430 12 301 4.8 20.9 0.00 0.00 0.00 85 1013.0
20260502091429 12 242 4.8 8.0 0.00 0.00 0.00 86 1013.5
20260502090935 12 243 3.2 6.4 0.00 0.00 0.00 86 1013.5
20260502090421 12 88 1.6 14.5 0.00 0.00 0.00 86 1013.5
20260502071426 12 289 6.4 14.5 0.00 0.00 0.00 86 1013.8
20260502070934 12 289 6.4 12.9 0.00 0.00 0.00 86 1013.8
20260502070438 12 277 4.8 17.7 0.00 0.00 0.00 86 1013.8
20260502065952 12 241 8.0 16.1 0.00 0.00 0.00 86 1013.9
20260502065438 12 196 8.0 17.7 0.00 0.00 0.00 86 1013.9
20260502064924 12 280 9.7 17.7 0.00 0.00 0.00 86 1013.9
20260502064429 12 256 9.7 16.1 0.00 0.00 0.00 86 1013.9
20260502063917 12 249 9.7 17.7 0.00 0.00 0.00 86 1013.9
20260502063419 12 242 9.7 17.7 0.00 0.00 0.00 86 1013.9
20260502062927 12 212 4.8 16.1 0.00 0.00 0.00 86 1013.9
20260502062434 12 236 8.0 20.9 0.00 0.00 0.00 86 1013.9
20260502061950 12 242 6.4 20.9 0.00 0.00 0.00 86 1013.8
20260502061417 12 308 8.0 20.9 0.00 0.00 0.00 86 1013.9
20260502060923 12 206 11.3 20.9 0.00 0.00 0.00 86 1014.0
20260502060430 12 259 11.3 20.9 0.00 0.00 0.00 86 1013.9
20260502055917 12 254 9.7 24.1 0.00 0.00 0.00 86 1013.9
20260502055420 12 219 14.5 24.1 0.00 0.00 0.00 85 1013.9
20260502054927 12 264 12.9 25.7 0.00 0.00 0.00 85 1013.9
20260502054434 12 268 12.9 25.7 0.00 0.00 0.00 85 1013.9
20260502053941 12 263 17.7 25.7 0.00 0.00 0.00 85 1013.9
20260502053427 12 249 16.1 30.6 0.00 0.00 0.00 85 1013.9
20260502052933 12 258 16.1 30.6 0.00 0.00 0.00 85 1013.9
20260502052426 12 249 14.5 27.4 0.00 0.00 0.00 85 1013.9
20260502051932 12 247 8.0 27.4 0.00 0.00 0.00 85 1014.0
20260502051419 12 314 12.9 24.1 0.00 0.00 0.00 85 1013.9
20260502050953 12 202 9.7 24.1 0.00 0.00 0.00 85 1013.9
20260502050418 12 270 12.9 25.7 0.00 0.00 0.00 85 1013.9
20260502045927 12 270 11.3 25.7 0.00 0.00 0.00 85 1013.9
20260502045435 12 268 8.0 25.7 0.00 0.00 0.00 85 1013.9
20260502044938 12 270 9.7 25.7 0.00 0.00 0.00 85 1013.9
20260502044453 12 276 12.9 20.9 0.00 0.00 0.00 85 1013.9
20260502043934 12 239 8.0 20.9 0.00 0.00 0.00 85 1013.9
20260502043450 12 275 8.0 25.7 0.00 0.00 0.00 85 1013.8
20260502042936 12 242 12.9 25.7 0.00 0.00 0.00 85 1013.7
20260502042423 12 270 14.5 25.7 0.00 0.00 0.00 85 1013.6
20260502041931 12 265 9.7 25.7 0.00 0.00 0.00 85 1013.5
20260502041417 12 276 14.5 24.1 0.00 0.00 0.00 85 1013.4
20260502040921 12 212 14.5 29.0 0.00 0.00 0.00 85 1013.3
20260502040429 12 248 12.9 29.0 0.00 0.00 0.00 85 1013.3
20260502035935 12 272 14.5 29.0 0.00 0.00 0.00 85 1013.3
20260502035423 12 264 16.1 27.4 0.00 0.00 0.00 85 1013.2
20260502034929 12 242 12.9 27.4 0.00 0.00 0.00 85 1013.2
20260502034438 12 282 12.9 22.5 0.00 0.00 0.00 85 1013.2
20260502033957 12 273 12.9 22.5 0.00 0.00 0.00 84 1013.1
20260502033437 12 215 12.9 24.1 0.00 0.00 0.00 84 1013.1
20260502032923 12 275 14.5 29.0 0.00 0.00 0.00 84 1013.0
20260502032432 12 303 16.1 29.0 0.00 0.00 0.00 84 1013.0
20260502031920 12 268 12.9 22.5 0.00 0.00 0.00 84 1013.0
20260502031450 12 242 11.3 20.9 0.00 0.00 0.00 84 1012.9
20260502030936 12 268 11.3 19.3 0.00 0.00 0.00 83 1013.0
20260502030450 12 213 9.7 20.9 0.00 0.00 0.00 83 1013.0
20260502025931 12 221 9.7 20.9 0.00 0.00 0.00 83 1012.9
20260502025437 12 222 3.2 14.5 0.00 0.00 0.00 83 1013.0
20260502024953 12 240 4.8 14.5 0.00 0.00 0.00 82 1012.9
20260502024449 12 247 6.4 11.3 0.00 0.00 0.00 82 1012.7
20260502023934 12 184 4.8 19.3 0.00 0.00 0.00 82 1012.8
20260502023423 12 128 8.0 19.3 0.00 0.00 0.00 82 1012.6
20260502022943 12 39 4.8 19.3 0.00 0.00 0.00 82 1012.5
20260502022428 12 66 4.8 19.3 0.00 0.00 0.00 82 1012.6
20260502021934 13 7 6.4 14.5 0.00 0.00 0.00 81 1012.6
20260502021451 13 134 8.0 14.5 0.00 0.00 0.00 81 1012.7
20260502020935 13 31 4.8 16.1 0.00 0.00 0.00 81 1012.7
20260502020421 13 130 6.4 25.7 0.00 0.00 0.00 82 1012.7
20260502015928 13 323 1.6 24.1 0.00 0.00 0.00 81 1012.8
20260502015430 13 116 11.3 24.1 0.00 0.00 0.00 81 1012.8
20260502014936 13 329 6.4 19.3 0.00 0.00 0.00 81 1012.7
20260502014424 13 268 6.4 19.3 0.00 0.00 0.00 80 1012.7
20260502013931 13 22 8.0 19.3 0.00 0.00 0.00 80 1012.8
20260502013417 13 75 4.8 19.3 0.00 0.00 0.00 80 1012.7
20260502012922 13 210 9.7 32.2 0.00 0.00 0.00 80 1012.6
20260502012429 13 285 12.9 30.6 0.00 0.00 0.00 80 1012.7
20260502011934 13 151 8.0 30.6 0.00 0.00 0.00 80 1012.6
20260502011435 14 282 11.3 25.7 0.00 0.00 0.00 79 1012.7
20260502010921 14 345 11.3 24.1 0.00 0.00 0.00 79 1012.7
20260502010427 14 62 9.7 27.4 0.00 0.00 0.00 79 1012.8
20260502005930 14 225 11.3 27.4 0.00 0.00 0.00 80 1012.7
20260502005434 14 301 11.3 27.4 0.00 0.00 0.00 79 1012.7
20260502004941 14 256 12.9 29.0 0.00 0.00 0.00 79 1012.7
20260502004457 14 256 12.9 29.0 0.00 0.00 0.00 79 1012.6
20260502003921 14 214 8.0 24.1 0.00 0.00 0.00 79 1012.8
20260502003426 14 313 11.3 24.1 0.00 0.00 0.00 78 1012.7
20260502002930 14 199 9.7 24.1 0.00 0.00 0.00 79 1012.7
20260502002435 14 15 11.3 19.3 0.00 0.00 0.00 79 1012.6
20260502001923 14 97 9.7 19.3 0.00 0.00 0.00 79 1012.7
20260502001430 14 32 9.7 24.1 0.00 0.00 0.00 78 1012.9
20260502000935 14 45 9.7 30.6 0.00 0.00 0.00 78 1012.9
20260502000421 14 323 11.3 30.6 0.00 0.00 0.00 78 1012.9
20260501235921 14 147 6.4 24.1 0.00 0.00 0.00 77 1013.1
20260501235446 14 319 6.4 24.1 0.00 0.00 0.00 77 1013.0
20260501234933 15 333 14.5 24.1 0.00 0.00 0.00 77 1013.0
20260501234437 15 217 8.0 16.1 0.00 0.00 0.00 77 1013.1
20260501233954 15 55 6.4 17.7 0.00 0.00 0.00 77 1013.1
20260501233442 15 337 6.4 27.4 0.00 0.00 0.00 77 1013.3
20260501232929 15 50 4.8 27.4 0.00 0.00 0.00 77 1013.3
20260501232436 15 111 6.4 25.7 0.00 0.00 0.00 77 1013.2
20260501231953 14 45 9.7 22.5 0.00 0.00 0.00 78 1013.3
20260501231447 14 302 11.3 25.7 0.00 0.00 0.00 77 1013.3
20260501231002 15 294 14.5 29.0 0.00 0.00 0.00 77 1013.3
20260501230456 15 297 16.1 29.0 0.00 0.00 0.00 77 1013.3
20260501225931 15 8 12.9 24.1 0.00 0.00 0.00 76 1013.3
20260501225419 15 294 11.3 24.1 0.00 0.00 0.00 77 1013.5
20260501224945 15 22 8.0 20.9 0.00 0.00 0.00 77 1013.5
20260501224430 15 330 11.3 20.9 0.00 0.00 0.00 77 1013.6
20260501223936 15 350 9.7 24.1 0.00 0.00 0.00 77 1013.5
20260501223423 15 341 11.3 24.1 0.00 0.00 0.00 77 1013.6
20260501222928 15 306 8.0 27.4 0.00 0.00 0.00 76 1013.7
20260501222431 15 320 9.7 27.4 0.00 0.00 0.00 76 1013.8
20260501221918 15 276 11.3 19.3 0.00 0.00 0.00 76 1014.0
20260501221423 15 7 9.7 27.4 0.00 0.00 0.00 76 1014.2
20260501220932 15 302 4.8 27.4 0.00 0.00 0.00 77 1014.4
20260501220436 15 240 12.9 24.1 0.00 0.00 0.00 77 1014.5
20260501215939 15 268 9.7 24.1 0.00 0.00 0.00 77 1014.7
20260501215423 15 13 11.3 27.4 0.00 0.00 0.00 77 1014.7
20260501214945 15 315 16.1 27.4 0.00 0.00 0.00 77 1014.6
20260501214429 15 308 4.8 14.5 0.00 0.00 0.00 77 1014.7
20260501213935 15 289 6.4 20.9 0.00 0.00 0.00 77 1014.7
20260501213421 15 304 11.3 20.9 0.00 0.00 0.00 76 1014.7
20260501212929 15 7 8.0 16.1 0.00 0.00 0.00 76 1014.8
20260501212433 15 352 8.0 20.9 0.00 0.00 0.00 76 1014.8
20260501211934 15 252 4.8 16.1 0.00 0.00 0.00 77 1014.7
20260501211448 15 322 4.8 17.7 0.00 0.00 0.00 78 1014.8
20260501210934 15 256 8.0 19.3 0.00 0.00 0.00 78 1014.9
20260501210420 15 233 3.2 22.5 0.00 0.00 0.00 79 1015.0
20260501205925 14 289 6.4 20.9 0.00 0.00 0.00 79 1015.0
20260501205432 14 222 11.3 25.7 0.00 0.00 0.00 79 1015.0
20260501204938 14 229 11.3 25.7 0.00 0.00 0.00 79 1015.0
20260501204441 14 282 4.8 22.5 0.00 0.00 0.00 78 1015.1
20260501203945 15 260 9.7 22.5 0.00 0.00 0.00 80 1015.1
20260501203429 14 268 4.8 22.5 0.00 0.00 0.00 79 1015.2
20260501202933 14 256 8.0 20.9 0.00 0.00 0.00 79 1015.2
20260501202419 14 275 9.7 29.0 0.00 0.00 0.00 79 1015.3
20260501201924 14 236 12.9 29.0 0.00 0.00 0.00 79 1015.3
20260501201427 14 196 8.0 24.1 0.00 0.00 0.00 79 1015.2
20260501200931 14 273 14.5 24.1 0.00 0.00 0.00 80 1015.3
20260501200417 14 310 8.0 22.5 0.00 0.00 0.00 80 1015.2
20260501195924 13 295 6.4 27.4 0.00 0.00 0.00 80 1015.3
20260501195450 13 252 12.9 27.4 0.00 0.00 0.00 80 1015.4
20260501194935 14 283 12.9 20.9 0.00 0.00 0.00 80 1015.5
20260501194443 14 296 6.4 20.9 0.00 0.00 0.00 81 1015.4
20260501193953 13 169 8.0 25.7 0.00 0.00 0.00 81 1015.5
20260501193439 13 292 12.9 25.7 0.00 0.00 0.00 81 1015.4
20260501192921 13 341 3.2 17.7 0.00 0.00 0.00 81 1015.4
20260501192448 13 321 8.0 17.7 0.00 0.00 0.00 82 1015.6
20260501191933 13 163 8.0 25.7 0.00 0.00 0.00 82 1015.5
20260501191417 13 271 16.1 25.7 0.00 0.00 0.00 82 1015.5
20260501190917 13 287 9.7 22.5 0.00 0.00 0.00 82 1015.6
20260501190444 13 284 6.4 24.1 0.00 0.00 0.00 83 1015.6
20260501185940 13 308 6.4 16.1 0.00 0.00 0.00 83 1015.7
20260501185426 13 314 4.8 19.3 0.00 0.00 0.00 83 1015.7
20260501184931 13 302 11.3 19.3 0.00 0.00 0.00 83 1015.8
20260501184435 13 263 6.4 20.9 0.00 0.00 0.00 84 1015.9
20260501183919 13 240 8.0 20.9 0.00 0.00 0.00 84 1015.8
20260501183421 13 285 8.0 17.7 0.00 0.00 0.00 85 1016.0
20260501182954 12 247 4.8 12.9 0.00 0.00 0.00 85 1015.9
20260501182419 12 218 6.4 17.7 0.00 0.00 0.00 85 1016.0
20260501181926 12 237 8.0 16.1 0.00 0.00 0.00 85 1015.9
20260501181434 12 304 8.0 14.5 0.00 0.00 0.00 85 1015.8
20260501180921 12 333 6.4 12.9 0.00 0.00 0.00 85 1015.8
20260501180429 12 360 6.4 11.3 0.00 0.00 0.00 86 1015.9
20260501175930 12 250 4.8 11.3 0.00 0.00 0.00 86 1015.9
20260501175436 12 313 4.8 16.1 0.00 0.00 0.00 86 1015.9
20260501174923 12 256 6.4 17.7 0.00 0.00 0.00 86 1015.9
20260501174430 12 222 9.7 17.7 0.00 0.00 0.00 86 1015.9
20260501173934 12 213 8.0 17.7 0.00 0.00 0.00 86 1015.9
20260501173419 12 290 4.8 20.9 0.00 0.00 0.00 86 1015.8
20260501172924 12 256 11.3 20.9 0.00 0.00 0.00 86 1015.8
20260501172425 12 303 8.0 22.5 0.00 0.00 0.00 86 1015.8
20260501171931 12 275 6.4 22.5 0.00 0.00 0.00 86 1015.9
20260501171448 12 294 11.3 16.1 0.00 0.00 0.00 86 1015.8